LiveATC.Net - Listen to live air traffic control over the Internet!


ICAO: KMDQ  IATA: MDQ   Airport: Huntsville Executive Airport / Tom Sharp Jr Field
City: Huntsville   State/Province: Alabama
Country: United States   Continent: North America
KMDQ METAR Weather: KMDQ 210055Z AUTO 13005KT 10SM CLR 17/15 A2994 RMK A02 T01660147
KMDQ Flight Activity (FlightAware)
KMDQ Airport Info   (iFlightPlanner)
KMDQ VFR Sectional Chart   (iFlightPlanner) 
KMDQ IFR Low Chart   (iFlightPlanner) 

KMDQ CTAF
Feed Status: UP   Listeners: 2
Listen in your browser - HTML5 player (in browser, HTML5)
Click here to listen with your own player (launches your MP3 player)
KMDQ CTAF Audio Archives
FacilityFrequency
Huntsville Executive CTAF123.000

NOTICE

Unauthorized use prohibited. See LiveATC.net Terms of Service


Airport/ARTCC Code
Frequency Search
(e.g., 124.400, 128.75)
Site-wide search
 


Browse LiveATC Feeds
Top 50 LiveATC Feeds
LiveATC Feed Map
Bad Weather Areas

LiveATC FAQ
Offer LiveATC feed
Contact LiveATC.net
Press Inquiries

LiveATC on iPhone
LiveATC on Android

Windows Phone
Windows 8/10

LiveATC Mobile
(Mobile browser)

ATC Audio Archives
Interesting Recordings

LiveATC Forums


Home Page
About LiveATC.net
Make a Donation
Terms of Use
Privacy Policy

Canadian Air Freqs

AIRMETs/SIGMETs

FAA Airport Status
Nat'l Airspace Status
Arrival Demand Charts


Server Software By:
Icecast.org
Liquidsoap